Weather in Filippovo

Russia / Komi Republic     65°26′14″N   51°06′09″E
temp.,
°C
wind,
m/s
gust,
m/s
humid.,
%
clouds,
%
prec.,
mm/h
press.,
hPa
HPBL,
m
15 may, sat
sat1500:00+11ne4873100 0.1 1014381
03:00+9ne377971 0.1 1014356
06:00+10ene3474100 0.1 1014496
09:00+12ene3368100 0.1 1014667
12:00+13ene226247 0.0 1015810
15:00+15ene325351 0.0 10141152
18:00+13ene45618 0.0 1014688
21:00+9e487611 0.0 1014383
16 may, sun
sun1600:00+7e368326 0.0 1015258
03:00+6e378672 0.0 1014224
06:00+9e3475100 0.0 1013341
09:00+12ese3564100 0.0 1011643
12:00+13e3563100 0.0 1010780
15:00+12ene3783100 2.1 1009447
18:00+10ne41092100 2.6 1008435
21:00+8ne41090100 2.9 1008428
17 may, mon
mon1700:00+7ene4993100 4.4 1008380
03:00+7ene3893100 5.3 1008379
06:00+6ne4993100 1.0 1009367
09:00+6ne3893100 3.4 1010408
12:00+5ne4993100 3.4 1012431
15:00+6ne3885100 3.4 1014461
18:00+6nnw2680100 0.0 1016213
21:00+6nnw258182 0.0 1018107
18 may, tue
tue1800:00+4nne22775 0.0 102019
03:00+3n11725 0.0 102110
06:00+7ne115549 0.0 1023212
09:00+12ene11381 0.0 1024712
12:00+15sse12321 0.0 10231015
15:00+17sse2231100 0.0 10231289
18:00+16se2338100 0.0 10221028
21:00+12se2853100 0.0 1022189
19 may, wed
wed1900:00+10se31158100 0.0 1021273
03:00+11se3115794 0.0 1021310
06:00+14sse3105490 0.0 1019376
09:00+20s4748100 0.0 1017757
12:00+24ssw574259 0.0 10151367
15:00+27ssw583496 0.0 10132079
18:00+25ssw4939100 0.0 1011763
21:00+20ssw311565 0.0 1011245